Weather History for Ft Lauderdale, FL

Change the Weather History Date:

Monday, July 28, 2014

  Actual Average Record
Temperature  
Mean Temperature 88 °F 85 °F  
Max Temperature 93 °F 91 °F 96 °F (1980)
Min Temperature 83 °F 79 °F 69 °F (1946)
Degree Days  
Heating Degree Days 0 0  
Month to date heating degree days 0 0  
Since 1 June heating degree days 0 0  
Since 1 July heating degree days 0 0  
Cooling Degree Days 23 20  
Month to date cooling degree days 553 541  
Year to date cooling degree days 2604 2502  
Since 1 June cooling degree days 1069 1084  
Growing Degree Days 36 (Base 50)    
Moisture  
Dew Point 74 °F    
Average Humidity 66    
Maximum Humidity 79    
Minimum Humidity 52    
Precipitation  
Precipitation 0.00 in 0.18 in 1.55 in (1936)
Month to date precipitation 8.73 5.45  
Year to date precipitation 37.97 33.10  
Snow  
Snow 0.00 in - - ()
Month to date snowfall 0.0  
Since 1 June snowfall 0.0  
Since 1 July snowfall 0.0  
Snow Depth 0.00 in    
Sea Level Pressure  
Sea Level Pressure 30.05 in    
Wind  
Wind Speed 7 mph (SSW)    
Max Wind Speed 16 mph    
Max Gust Speed 16 mph    
Visibility 10 miles    
Events      
T = Trace of Precipitation, MM = Missing Value Source: NWS Daily Summary

Daily Weather History Graph

Daily Weather History Graph

Search for Another Location

Airport:

Trip Planner

Search our weather history database for the weather conditions in past years. The results will help you decide how hot, cold, wet, or windy it might be!

Date:

Astronomy

Jul. 28, 2014 Rise Set
Actual Time 6:44 AM EDT 8:09 PM EDT
Civil Twilight 6:19 AM EDT 8:34 PM EDT
Nautical Twilight 5:49 AM EDT 9:04 PM EDT
Astronomical Twilight 5:18 AM EDT 9:35 PM EDT
Moon 8:09 AM EDT (7/28) 9:07 PM EDT (7/28)
Length of Visible Light 14h 14m
Length of Day
13h 24m
Waxing Crescent, 3% of the Moon is Illuminated
Jul 28
Waxing Crescent
Aug 3
First Quarter
Aug 10
Full
Aug 17
Last Quarter
Aug 25
New

Hourly Weather History & Observations

Time (EDT) Temp. Heat Index Dew Point Humidity Pressure Visibility Wind Dir Wind Speed Gust Speed Precip Events Conditions
12:53 AM 84.9 °F 93.3 °F 75.0 °F 72% 30.09 in 10.0 mi Calm Calm - N/A   Mostly Cloudy
1:53 AM 84.9 °F 93.3 °F 75.0 °F 72% 30.08 in 10.0 mi Calm Calm - N/A   Mostly Cloudy
2:53 AM 84.0 °F 91.9 °F 75.0 °F 74% 30.06 in 10.0 mi Calm Calm - N/A   Mostly Cloudy
3:53 AM 84.0 °F 91.2 °F 73.9 °F 72% 30.05 in 10.0 mi Calm Calm - N/A   Overcast
4:53 AM 82.9 °F 89.4 °F 73.9 °F 74% 30.04 in 10.0 mi Calm Calm - N/A   Mostly Cloudy
5:53 AM 82.9 °F 90.2 °F 75.0 °F 77% 30.05 in 10.0 mi Calm Calm - N/A   Scattered Clouds
6:53 AM 82.9 °F 90.8 °F 75.9 °F 79% 30.06 in 10.0 mi Calm Calm - N/A   Scattered Clouds
7:53 AM 84.0 °F 92.6 °F 75.9 °F 76% 30.09 in 10.0 mi NW 4.6 mph - N/A   Mostly Cloudy
8:53 AM 86.0 °F 96.0 °F 75.9 °F 72% 30.09 in 10.0 mi NW 6.9 mph - N/A   Scattered Clouds
9:53 AM 88.0 °F 96.5 °F 73.9 °F 63% 30.08 in 10.0 mi WNW 5.8 mph - N/A   Partly Cloudy
10:53 AM 90.0 °F 99.0 °F 73.9 °F 59% 30.08 in 10.0 mi West 6.9 mph - N/A   Scattered Clouds
11:53 AM 91.9 °F 100.7 °F 73.0 °F 54% 30.07 in 10.0 mi West 6.9 mph - N/A   Scattered Clouds
12:53 PM 91.0 °F 98.2 °F 72.0 °F 53% 30.07 in 10.0 mi West 8.1 mph - N/A   Mostly Cloudy
1:53 PM 91.9 °F 99.5 °F 72.0 °F 52% 30.06 in 10.0 mi South 11.5 mph - N/A   Mostly Cloudy
2:53 PM 90.0 °F 100.2 °F 75.0 °F 61% 30.04 in 10.0 mi SE 12.7 mph - N/A   Mostly Cloudy
3:53 PM 91.9 °F 103.2 °F 75.0 °F 58% 30.01 in 10.0 mi SE 15.0 mph - N/A   Mostly Cloudy
4:53 PM 91.9 °F 101.3 °F 73.9 °F 55% 30.00 in 10.0 mi SSE 13.8 mph - N/A   Mostly Cloudy
5:53 PM 91.0 °F 100.4 °F 73.9 °F 57% 30.00 in 10.0 mi SSE 13.8 mph - N/A   Mostly Cloudy
6:53 PM 90.0 °F 100.2 °F 75.0 °F 61% 30.00 in 10.0 mi SE 13.8 mph - N/A   Mostly Cloudy
7:53 PM 89.1 °F 100.2 °F 75.9 °F 65% 29.99 in 10.0 mi SSE 16.1 mph - N/A   Mostly Cloudy
8:53 PM 88.0 °F 100.2 °F 77.0 °F 70% 30.00 in 10.0 mi SSE 16.1 mph - N/A   Mostly Cloudy
9:53 PM 89.1 °F 96.0 °F 72.0 °F 57% 30.01 in 10.0 mi Variable 4.6 mph - N/A   Overcast
10:53 PM 87.1 °F 93.6 °F 72.0 °F 61% 30.03 in 10.0 mi Calm Calm - N/A   Scattered Clouds
11:53 PM 86.0 °F 93.8 °F 73.9 °F 67% 30.03 in 10.0 mi West 6.9 mph - N/A   Scattered Clouds